Vertical_Velocity
-4 -2 0 -1 0 -0 -3 -1 -1 -1 -2 0 -1 1 0 -0 0 -2 0 0 -1 -1 0 -1 1 -1 -0 1 18 -6 -13 -1 -5 -3 0 4 8 1 4 3 3 5 -2 -2 -1 -3 -1
-1 1 -1 -2 -1 0 -2 -1 -1 -0 -1 -1 -1 1 -2 1 0 -2 -0 1 -2 2 -1 -1 -1 1 0 11 -9 4 -4 -5 5 -0 0 1 -5 7 -1 -0 9 -1 2 -2 1 -1 -1
2 1 3 -2 -1 -4 -2 -3 -0 -1 -0 -1 1 -1 -0 2 -2 0 -2 0 -2 1 -1 -1 -1 0 1 13 -4 1 -2 4 -8 -2 2 -5 7 9 3 -2 4 -1 5 0 0 1 2
-1 -2 1 -2 -5 1 1 -3 1 -0 -1 -3 1 -1 -1 4 -2 -1 0 -0 -1 2 -1 -1 -2 2 4 -11 -17 -2 -4 8 3 -0 -2 7 -8 -2 7 -5 -5 9 12 6 -2 1 4
-1 -2 -2 -2 -2 1 -2 -3 1 1 -1 1 -3 -0 -3 5 -3 -0 -3 0 -2 -0 -1 -4 -1 3 11 -5 4 -8 -1 -1 2 -2 -4 -7 -6 -3 8 6 3 4 -0 1 7 0 -0
-1 1 2 -2 -4 -1 0 -1 3 -3 -1 -0 -1 -1 -2 3 0 -3 -2 -4 0 -2 1 -4 -7 19 -5 -1 -9 -2 -6 -9 15 -5 5 1 2 3 2 -5 5 0 -2 -4 3 10 -0
0 5 1 4 1 -4 -2 -0 2 -3 2 -1 -1 -1 2 0 -1 0 -0 5 -1 1 25 14 4 0 -3 -1 -7 -7 -7 2 2 1 4 1 9 3 5 3 4 3 3 2 -5 5 -3
0 -4 -3 -1 1 -3 -0 -1 1 -2 -0 -2 1 -1 -1 1 0 1 -2 0 -1 9 4 -4 2 -7 -1 3 5 -8 -8 10 0 1 -0 5 3 5 1 0 3 -1 2 -6 -6 0 -1
-3 -2 -1 -5 -2 -2 4 -1 -0 0 -0 0 -1 -0 -2 4 1 -2 -7 12 0 -3 5 -2 -2 -4 3 -1 2 1 -6 -2 4 -1 0 -0 10 -0 2 -2 -2 -3 5 -0 9 -4 -4
1 0 -2 1 -2 2 2 -3 0 3 1 -2 -1 -1 -1 4 -1 -1 -3 -4 -1 -1 5 4 5 -0 -0 -5 2 -2 -5 2 1 4 0 2 2 1 -1 1 3 1 1 2 1 5 1
-0 -2 0 2 1 3 2 2 3 3 -2 -0 -4 1 0 2 2 4 10 -1 -0 -0 -4 -6 5 -12 -1 -4 2 -3 -7 -0 2 4 9 15 -1 -2 -3 5 5 -2 3 5 3 2 8
2 -1 -1 1 -1 -3 -3 -2 -3 1 -5 0 0 4 5 7 1 -3 -1 -2 1 -4 -9 5 2 2 -5 -2 4 2 -1 -6 -6 -0 -1 4 1 -4 11 -1 3 0 2 -1 2 5 7
-0 -1 -4 1 4 4 4 2 -1 4 -6 3 -2 2 2 -3 15 -1 -1 -2 5 -7 0 6 1 -1 -1 2 1 -2 -2 -6 1 4 4 5 3 2 -3 -5 -6 -2 -7 -4 -7 -7 6
-1 -0 -3 -0 -1 -4 -1 1 -3 -4 1 -2 3 -3 4 -6 -5 4 -1 8 -5 -4 -0 3 -0 1 0 1 4 1 -0 -1 -5 -3 1 3 8 -1 0 6 13 5 4 3 3 1 2
2 -2 -2 1 -0 -0 2 3 -1 -4 3 -0 1 4 2 2 0 0 7 -5 -3 -0 -1 -1 5 3 2 1 3 -1 -1 2 3 2 1 -1 4 -2 -2 0 3 -2 -7 4 1 0 -7
3 1 -2 1 1 0 -3 1 0 -2 2 -7 1 7 1 2 1 -1 -2 -2 0 0 -1 0 2 5 -0 1 4 -0 -2 6 2 -0 2 0 0 2 3 -6 -3 0 9 -4 -4 -2 1
-3 0 -1 0 0 0 -1 -0 -1 6 -7 0 2 12 1 -6 -1 6 -2 3 0 1 1 5 -0 -0 0 -1 -0 1 4 8 -0 -1 -0 1 2 1 -3 -1 5 -9 -4 -4 -4 -2 0
-4 1 -3 -1 -0 3 -2 1 -2 3 -3 3 1 4 0 -6 10 0 -0 -3 -1 3 -0 -2 -2 -1 0 0 -0 -1 1 3 -1 3 1 3 3 0 5 7 -2 -1 3 -1 1 1 0
-1 -1 -3 0 -0 0 -0 1 0 2 -6 -1 11 -2 1 5 -0 1 5 3 -1 -0 1 0 -0 0 0 -0 -1 -2 0 2 -2 -0 4 5 0 2 13 11 -5 -3 -1 0 -0 -0 2
6 -6 -1 0 1 0 0 1 1 0 -0 3 11 -0 -1 2 1 -9 -1 2 2 -1 1 -1 -0 -2 -1 -0 0 0 2 1 1 0 -3 1 -1 -0 3 11 1 -2 -0 0 -0 -3 2
8 -4 -3 1 -4 -0 -3 4 -1 0 -2 3 7 1 -0 1 8 1 -1 -4 1 1 -1 0 2 -0 1 -0 1 0 1 4 3 -5 1 4 -2 -7 3 1 -3 3 1 1 -3 1 -5
3 -0 2 3 1 2 -2 8 2 0 -1 -0 10 -4 2 3 1 -3 1 5 -3 5 -1 3 -4 1 -1 -2 7 1 -0 0 5 -1 -0 -0 3 -3 5 2 -2 -2 -0 -0 -0 2 -0
-2 -1 -1 6 -2 4 -2 1 1 1 -4 5 -10 5 -4 1 3 -4 2 3 4 -3 2 2 -2 -6 -3 7 0 1 -2 -1 1 3 0 2 -2 -0 3 -0 -0 -8 3 1 1 -0 8
-3 -0 -0 3 -0 2 -2 2 2 2 -3 -3 0 5 1 4 -4 -1 -2 -5 1 3 -6 5 2 -8 1 -3 -4 0 -1 -2 -3 1 0 1 -0 1 1 4 1 4 0 1 1 3 -1
-2 -0 2 0 -0 1 3 -0 5 -6 3 -1 7 11 -5 3 -5 3 -0 -3 1 4 -4 -5 4 -1 -2 -1 3 3 4 3 3 1 -2 -1 -1 0 -1 0 6 2 1 -1 1 11 3
-1 1 3 2 0 1 1 3 -2 3 -0 -4 -0 1 -9 -17 13 -8 -6 -5 -2 1 -1 3 -1 -3 0 3 -2 -0 1 2 -1 -5 -2 0 -1 -1 -1 -2 1 5 2 -1 -1 4 2
-0 2 2 1 -2 1 0 1 4 -3 -3 -4 10 10 -16 -16 2 3 1 1 3 -1 -1 -1 -2 2 -4 -1 -2 -1 1 3 -1 -0 -1 -1 -1 0 -0 0 4 2 2 -1 4 7 -4
-2 4 2 -0 0 2 -2 1 1 1 -0 -3 2 9 -18 -7 5 -3 5 2 4 7 -2 1 5 -2 -0 -4 -4 2 -2 3 -3 5 2 1 3 1 -2 -2 5 -0 -1 0 3 -2 -3
1 2 1 -1 4 1 1 2 1 4 -2 9 -5 -1 -1 -22 3 4 -6 -4 -7 1 5 1 4 -2 -2 -1 1 -2 -1 -2 0 1 -3 -3 3 2 5 6 4 -2 -0 -3 -5 5 -4
Height
1517 1517 1515 1513 1511 1510 1509 1508 1508 1508 1507 1508 1507 1506 1506 1506 1505 1504 1503 1501 1500 1500 1498 1497 1497 1497 1499 1499 1496 1493 1493 1492 1490 1491 1492 1492 1490 1488 1484 1478 1473 1469 1470 1472 1472 1476 1480
1515 1514 1513 1510 1510 1508 1507 1505 1505 1506 1506 1506 1506 1504 1504 1503 1503 1502 1501 1500 1499 1499 1499 1498 1497 1498 1499 1499 1494 1493 1493 1491 1490 1489 1489 1490 1488 1485 1482 1479 1476 1472 1470 1470 1471 1474 1477
1513 1512 1511 1509 1507 1506 1505 1504 1503 1504 1504 1504 1505 1503 1502 1501 1501 1500 1499 1500 1499 1499 1499 1499 1499 1499 1499 1496 1494 1493 1491 1489 1488 1486 1486 1485 1485 1485 1481 1478 1474 1474 1474 1468 1467 1469 1473
1510 1509 1508 1506 1506 1504 1502 1502 1502 1502 1502 1502 1503 1502 1500 1500 1500 1500 1499 1499 1500 1499 1499 1500 1499 1500 1496 1494 1494 1492 1490 1487 1487 1486 1484 1483 1484 1484 1482 1479 1474 1471 1467 1469 1454 1466 1472
1507 1506 1505 1504 1504 1501 1499 1499 1500 1500 1501 1501 1500 1500 1500 1498 1498 1499 1499 1499 1500 1500 1500 1500 1500 1499 1494 1494 1493 1491 1490 1488 1487 1486 1484 1484 1484 1481 1477 1474 1468 1461 1471 1464 1462 1466 1472
1504 1503 1501 1500 1501 1498 1497 1498 1499 1498 1499 1499 1498 1498 1498 1497 1497 1499 1499 1500 1500 1501 1501 1501 1499 1502 1496 1495 1493 1491 1489 1488 1486 1485 1484 1483 1480 1474 1471 1476 1489 1484 1478 1470 1468 1470 1474
1499 1499 1499 1498 1497 1496 1494 1496 1496 1497 1498 1497 1497 1496 1496 1496 1496 1498 1500 1501 1504 1503 1500 1499 1498 1496 1495 1494 1492 1491 1488 1487 1486 1484 1480 1477 1479 1483 1483 1483 1483 1481 1478 1476 1467 1469 1474
1495 1496 1497 1495 1495 1493 1493 1494 1494 1495 1495 1495 1495 1494 1494 1495 1496 1497 1500 1500 1500 1501 1501 1500 1498 1498 1496 1494 1492 1490 1487 1486 1483 1479 1478 1478 1485 1486 1486 1485 1483 1484 1481 1475 1466 1468 1476
1493 1494 1494 1494 1493 1492 1491 1491 1493 1493 1493 1493 1494 1493 1494 1493 1494 1497 1499 1501 1500 1499 1499 1500 1498 1498 1496 1496 1496 1493 1491 1485 1480 1478 1480 1487 1493 1490 1488 1487 1489 1489 1485 1485 1485 1480 1477
1490 1490 1491 1492 1490 1490 1489 1490 1491 1491 1491 1492 1493 1492 1493 1494 1498 1498 1501 1500 1500 1500 1497 1499 1496 1498 1497 1495 1496 1494 1492 1491 1484 1484 1485 1491 1494 1494 1491 1490 1497 1500 1486 1491 1488 1488 1491
1485 1487 1488 1489 1487 1487 1487 1488 1489 1489 1491 1491 1492 1492 1492 1494 1494 1499 1500 1500 1502 1502 1531 1500 1497 1500 1498 1497 1497 1496 1495 1492 1490 1489 1490 1501 1500 1501 1501 1501 1495 1498 1492 1490 1485 1485 1486
1482 1484 1485 1486 1484 1484 1486 1487 1487 1489 1490 1490 1491 1491 1492 1495 1495 1495 1497 1501 1504 1512 1535 1498 1496 1496 1498 1498 1497 1498 1498 1496 1496 1493 1494 1500 1503 1505 1506 1500 1494 1493 1489 1482 1475 1476 1493
1478 1480 1482 1483 1483 1483 1484 1485 1487 1488 1489 1489 1491 1490 1492 1492 1495 1495 1497 1503 1508 1527 1494 1496 1496 1495 1497 1500 1501 1498 1501 1504 1506 1503 1496 1497 1506 1504 1509 1503 1496 1490 1490 1498 1500 1518 1514
1474 1476 1478 1479 1479 1480 1483 1483 1487 1489 1489 1490 1490 1490 1490 1490 1492 1495 1498 1504 1526 1491 1489 1491 1494 1496 1497 1500 1505 1501 1500 1506 1514 1507 1498 1507 1508 1512 1511 1509 1506 1496 1499 1513 1521 1520 1526
1469 1472 1474 1475 1476 1479 1481 1483 1486 1488 1489 1490 1490 1491 1491 1491 1492 1496 1501 1521 1503 1487 1489 1494 1496 1494 1502 1504 1502 1504 1514 1517 1521 1520 1520 1529 1516 1512 1513 1509 1507 1503 1511 1506 1510 1507 1526
1464 1468 1470 1471 1473 1476 1480 1482 1485 1488 1488 1491 1491 1493 1492 1491 1494 1498 1500 1507 1497 1498 1498 1494 1493 1496 1496 1501 1502 1502 1512 1526 1523 1525 1522 1526 1527 1514 1511 1508 1508 1510 1514 1516 1519 1533 1537
1460 1463 1466 1467 1470 1474 1477 1481 1484 1486 1488 1493 1492 1491 1491 1493 1496 1497 1504 1497 1501 1504 1502 1500 1499 1499 1499 1505 1501 1508 1519 1529 1528 1525 1524 1522 1522 1516 1510 1519 1522 1521 1532 1533 1536 1548 1542
1455 1460 1463 1465 1468 1471 1475 1479 1483 1486 1489 1491 1491 1487 1491 1494 1497 1493 1496 1498 1504 1504 1505 1505 1503 1502 1503 1506 1509 1514 1519 1526 1532 1528 1522 1525 1520 1520 1522 1521 1524 1532 1541 1544 1542 1550 1547
1450 1456 1459 1461 1464 1468 1473 1477 1482 1484 1488 1489 1489 1489 1493 1494 1495 1495 1501 1503 1506 1505 1506 1505 1508 1508 1508 1510 1518 1518 1525 1534 1533 1529 1528 1529 1521 1522 1521 1524 1527 1539 1548 1543 1551 1554 1552
1444 1451 1455 1458 1462 1465 1472 1476 1480 1483 1487 1488 1487 1489 1494 1494 1489 1495 1502 1503 1508 1511 1511 1509 1510 1509 1510 1514 1514 1522 1530 1534 1533 1532 1532 1532 1518 1528 1543 1548 1550 1553 1544 1540 1540 1548 1552
1442 1446 1449 1453 1459 1464 1470 1474 1477 1482 1485 1488 1485 1485 1486 1489 1491 1494 1494 1499 1505 1511 1513 1511 1512 1510 1510 1518 1517 1523 1527 1533 1531 1533 1531 1529 1533 1537 1545 1550 1553 1555 1551 1539 1542 1543 1553
1437 1442 1446 1451 1455 1461 1467 1469 1475 1480 1484 1487 1487 1486 1486 1488 1493 1495 1498 1500 1506 1510 1509 1510 1513 1516 1514 1521 1524 1523 1526 1529 1533 1531 1530 1529 1539 1538 1549 1551 1555 1562 1560 1550 1545 1539 1540
1433 1438 1442 1447 1453 1459 1464 1469 1474 1478 1483 1486 1486 1487 1489 1493 1493 1494 1499 1502 1508 1512 1518 1517 1518 1522 1528 1533 1534 1535 1536 1537 1539 1537 1533 1530 1534 1541 1551 1552 1554 1560 1574 1569 1559 1555 1550
1429 1434 1439 1444 1450 1456 1462 1467 1472 1475 1482 1484 1487 1489 1489 1489 1492 1497 1503 1507 1510 1514 1521 1525 1523 1527 1537 1537 1537 1537 1537 1539 1540 1540 1539 1539 1538 1541 1543 1551 1556 1576 1576 1575 1569 1567 1561
1425 1430 1436 1442 1448 1454 1460 1465 1470 1476 1481 1484 1487 1489 1489 1492 1500 1507 1510 1514 1519 1523 1527 1531 1532 1534 1537 1536 1534 1535 1539 1541 1539 1542 1541 1540 1547 1548 1544 1559 1572 1574 1574 1576 1573 1573 1571
1421 1427 1433 1439 1445 1452 1458 1463 1469 1476 1480 1483 1486 1487 1490 1494 1509 1511 1513 1518 1520 1526 1532 1536 1537 1538 1538 1531 1529 1540 1550 1548 1544 1543 1543 1540 1546 1549 1552 1549 1556 1576 1573 1576 1577 1572 1573
1418 1424 1430 1436 1443 1450 1456 1461 1468 1474 1479 1484 1486 1486 1489 1498 1514 1515 1516 1518 1521 1524 1530 1537 1538 1538 1537 1531 1537 1544 1553 1547 1553 1555 1554 1549 1551 1558 1557 1557 1572 1575 1575 1576 1571 1581 1575
1416 1422 1429 1435 1442 1448 1455 1461 1467 1474 1479 1481 1486 1489 1489 1501 1518 1520 1521 1524 1526 1526 1527 1538 1538 1538 1535 1539 1543 1548 1551 1556 1559 1559 1559 1565 1565 1565 1561 1558 1569 1577 1574 1575 1580 1577 1574
1414 1420 1427 1434 1440 1448 1454 1460 1467 1473 1479 1483 1484 1490 1490 1494 1523 1526 1528 1529 1530 1530 1533 1536 1537 1539 1542 1542 1542 1545 1552 1557 1556 1565 1566 1572 1581 1579 1576 1578 1580 1580 1579 1579 1577 1575 1572